Wind_Speed
21 22 24 25 27 28 31 32 31 33 35 35 35 35 35 36 37 38 39 41 42 42 43 43 44 44 44 45 45 46 47 49 50 51 52 53 54 54 55 55 55 55 55 55
22 24 25 27 28 30 31 33 34 35 36 37 36 37 37 37 38 39 40 41 41 41 42 42 42 42 43 44 44 45 46 48 50 51 52 53 54 54 54 54 54 54 54 54
21 22 24 27 29 31 32 33 34 35 37 37 38 38 38 39 39 39 40 40 40 40 39 39 41 41 41 42 43 45 47 49 50 51 52 53 53 53 52 52 52 52 52 51
20 21 23 27 27 29 31 33 33 35 36 37 37 37 37 38 38 38 38 37 37 37 38 39 40 40 41 43 45 47 48 49 50 50 51 51 50 50 50 50 49 49 49 48
18 19 21 24 24 25 28 30 32 33 34 35 35 35 36 35 35 35 34 34 35 36 37 38 40 42 43 45 46 47 48 48 48 48 48 48 48 47 47 47 47 46 46 45
16 16 19 21 21 22 24 28 28 29 30 30 30 31 31 31 31 32 33 35 35 37 38 40 41 42 43 44 45 45 46 46 46 46 46 45 45 45 44 44 44 43 43 43
14 15 17 16 16 17 20 23 23 24 25 25 26 27 27 28 29 30 32 33 35 36 38 39 40 42 42 43 43 43 43 44 44 43 43 43 43 42 42 42 42 42 42 41
12 13 14 13 13 15 16 18 19 21 21 22 23 24 25 26 27 29 31 32 34 35 37 38 39 39 40 40 41 41 41 41 41 41 40 40 40 40 40 40 39 39 38 37
11 12 13 13 13 13 15 16 18 19 19 20 21 23 24 25 26 28 30 31 32 33 35 36 36 37 37 37 37 38 38 38 39 39 39 39 39 38 37 36 36 35 33 31
11 11 12 12 12 13 13 14 16 17 18 19 21 22 23 24 26 27 28 29 30 31 31 31 32 33 33 34 35 36 37 37 38 38 37 36 36 34 33 31 30 28 25 23
11 11 12 13 14 14 15 16 17 18 19 20 20 21 22 22 23 24 25 25 26 26 27 28 29 30 31 33 34 35 36 36 36 35 34 32 30 28 26 24 22 20 18 17
11 11 12 13 14 14 15 16 16 17 18 18 18 19 19 20 20 20 21 21 21 22 24 25 27 29 31 32 33 34 34 33 31 30 27 25 22 20 17 16 14 13 12 11
11 11 12 13 13 14 14 14 15 15 15 15 15 15 15 15 15 15 16 17 18 20 22 24 27 28 30 30 31 30 28 26 24 22 19 16 14 12 11 9 8 7 7 6
11 11 12 12 12 12 12 12 12 12 11 11 11 11 11 11 11 11 13 15 18 19 21 23 25 27 27 27 26 24 22 19 16 14 12 9 8 6 5 5 4 3 3 2
10 10 10 10 9 9 9 8 8 7 7 7 7 7 6 7 8 10 13 15 17 19 20 22 24 25 25 24 22 20 16 14 11 8 6 4 3 2 2 2 2 3 4 6
9 8 7 7 6 6 5 5 4 4 3 3 3 3 4 6 9 11 13 15 16 18 19 21 23 24 23 22 20 17 14 11 8 6 4 3 3 3 4 5 6 7 8 9
8 7 5 4 4 3 2 1 1 1 0 1 2 3 5 7 10 12 13 15 16 17 19 20 22 22 22 21 20 17 14 12 9 8 7 7 7 7 7 8 9 11 12 12
6 5 3 2 1 1 2 3 2 2 2 2 3 4 6 8 10 12 13 15 17 18 19 20 21 22 22 21 20 18 17 15 13 12 10 10 10 10 11 12 13 14 14 14
5 3 2 2 2 2 3 4 3 3 4 4 4 6 8 9 11 13 14 16 17 19 20 21 21 21 21 21 21 20 19 18 16 15 14 13 13 13 13 14 14 14 14 14
4 2 2 3 3 4 5 5 5 5 5 5 5 7 9 10 12 13 15 17 18 20 21 22 22 22 22 22 21 21 20 19 17 16 15 14 14 14 14 14 14 14 13 13
4 3 3 4 5 5 6 6 6 6 6 5 6 8 9 10 12 14 15 17 19 20 21 22 23 24 23 22 22 21 20 18 17 15 14 14 13 13 13 13 13 12 12 12
4 4 5 6 6 7 7 7 7 6 6 6 6 8 9 10 12 13 15 17 18 20 21 22 23 24 24 23 22 21 20 18 16 14 13 12 11 11 11 11 11 11 11 11
6 6 6 7 8 8 8 8 8 7 6 6 6 7 8 10 11 13 15 16 18 19 20 21 22 23 23 23 23 22 21 19 17 14 12 11 10 10 10 10 10 10 11 11
8 8 8 8 9 9 9 9 9 8 7 6 6 7 8 9 11 13 14 16 17 18 19 20 21 22 22 22 22 22 22 21 19 16 13 12 11 10 11 11 11 11 11 11
10 9 9 9 10 10 10 10 11 9 8 7 6 6 7 8 10 11 13 15 16 17 19 20 21 22 22 22 22 22 22 22 21 19 17 15 14 13 13 13 12 12 12 12
11 11 11 11 11 11 12 12 12 11 9 8 6 5 6 7 8 9 11 13 15 16 18 19 21 22 23 23 23 23 23 23 22 22 21 20 18 17 16 16 15 15 15 14
13 12 12 12 12 12 12 12 12 12 11 9 7 6 5 5 6 7 9 11 14 15 16 18 20 21 22 23 23 23 23 24 24 24 23 22 22 21 20 19 18 18 17 17
Wind_Direction
248 249 250 248 247 245 244 243 246 250 255 259 261 262 263 264 265 267 269 270 272 273 273 274 274 275 276 278 279 281 283 284 286 288 290 290 291 291 292 292 292 292 292 293
257 253 251 251 250 250 249 250 253 254 256 258 261 263 264 265 266 268 268 270 271 273 274 274 276 277 279 279 281 283 285 286 287 288 288 289 289 290 290 291 291 292 292 293
264 261 259 255 251 251 252 252 253 255 258 260 261 261 263 265 265 267 269 271 275 277 277 277 280 281 282 283 284 285 286 287 287 287 288 288 289 290 290 291 291 292 293 293
270 267 260 259 259 255 255 257 256 256 257 259 261 263 263 264 266 268 270 272 273 273 276 279 281 282 283 284 285 287 287 288 288 288 289 289 290 290 291 292 292 293 293 294
275 270 266 263 258 256 255 257 258 259 260 261 261 262 262 263 264 267 269 272 274 276 277 279 281 283 285 287 287 288 288 288 289 289 289 289 290 291 292 292 292 293 294 294
281 271 265 266 261 256 255 255 256 257 258 260 261 262 264 265 266 267 268 273 277 280 282 284 286 287 288 288 289 289 289 289 289 290 290 291 291 292 292 293 294 294 294 295
285 275 270 269 263 257 253 255 256 256 256 257 258 261 265 266 268 271 273 277 280 282 285 286 288 289 290 290 290 291 291 291 291 291 292 292 293 293 293 294 294 294 295 295
286 278 275 275 266 257 257 257 257 259 260 261 263 264 268 271 274 276 279 281 284 286 288 289 290 290 291 291 292 292 292 292 292 292 293 293 293 294 294 294 295 295 296 296
289 282 280 276 272 266 261 260 262 264 265 267 269 272 275 278 280 282 284 286 288 290 291 292 292 293 294 294 294 294 294 294 294 294 294 294 295 295 295 295 296 297 297 298
291 285 281 280 280 275 272 269 268 269 272 274 276 279 281 283 285 287 289 290 291 293 294 295 296 296 296 297 297 297 297 297 296 296 296 296 296 296 296 296 297 297 298 298
293 286 282 282 282 280 278 276 274 275 277 280 282 284 286 288 289 290 292 293 295 296 298 299 300 301 302 302 302 301 301 300 299 298 298 298 297 297 296 296 296 297 298 299
293 288 284 284 283 283 282 280 280 281 282 283 285 287 288 290 290 292 295 298 300 302 304 306 308 308 308 308 307 306 305 304 302 301 301 299 299 298 297 297 297 300 302 304
294 291 288 286 286 285 283 282 283 284 285 285 286 288 290 292 295 298 303 306 310 313 315 316 317 316 315 314 313 312 311 309 307 306 305 303 301 299 299 302 305 309 313 317
300 297 293 289 288 286 284 283 283 285 285 287 290 293 297 301 307 311 316 319 322 325 327 328 327 326 326 325 324 322 320 317 314 312 310 307 304 303 306 314 324 337 356 26
304 302 297 292 288 286 284 281 282 283 283 289 296 302 312 321 325 328 330 334 336 336 337 338 339 339 339 337 336 335 334 332 330 328 328 327 326 328 356 29 47 60 74 87
306 304 300 294 289 288 283 281 276 271 277 296 317 334 342 341 342 344 346 347 347 348 349 349 351 351 352 352 352 353 355 358 3 12 30 47 63 79 83 85 87 88 91 96
305 305 303 295 288 283 263 224 193 179 141 34 25 17 5 359 358 359 360 0 0 360 360 1 2 5 7 9 11 15 21 28 38 53 66 74 81 88 93 94 94 94 95 96
302 305 304 285 251 191 151 145 134 135 116 83 59 33 19 14 12 13 13 12 12 13 14 15 16 17 19 22 26 32 39 46 54 63 71 79 86 91 94 96 95 94 93 93
296 297 275 219 192 167 152 146 139 133 123 100 65 40 30 25 24 23 22 22 23 24 25 26 26 27 29 33 37 42 47 53 59 67 75 81 86 90 93 94 93 91 91 90
277 264 221 193 179 163 155 148 142 135 122 95 64 48 41 37 34 33 33 34 35 35 34 34 34 35 36 40 43 47 50 55 61 67 74 80 85 89 91 92 91 89 88 87
249 225 193 181 175 166 157 151 147 139 124 97 71 58 51 45 43 42 41 40 40 39 38 38 39 39 41 43 46 47 49 52 56 63 70 77 82 86 89 90 90 88 86 85
225 207 188 180 174 165 158 155 152 144 128 104 81 68 58 51 49 47 45 43 42 41 41 41 41 41 41 42 44 45 46 47 51 56 64 72 78 83 87 89 90 88 86 84
212 201 190 182 177 171 166 163 159 151 135 113 93 78 66 59 55 52 49 46 45 43 43 42 41 40 39 41 43 43 43 44 46 51 59 68 76 82 88 92 92 91 88 85
211 204 195 189 185 180 175 172 168 161 148 129 110 92 77 69 63 57 52 48 46 44 43 42 40 38 37 39 42 43 43 44 46 50 58 68 76 84 90 95 96 94 91 88
211 205 200 196 192 187 183 180 177 171 162 149 131 110 91 79 69 60 54 50 47 45 43 42 41 39 39 41 43 45 45 46 49 54 61 70 79 86 91 93 94 94 92 90
210 207 203 199 195 191 189 186 184 180 174 167 155 133 110 91 77 64 55 50 47 45 45 44 43 42 43 45 47 49 49 51 54 59 65 71 78 83 89 91 91 92 92 91
209 207 204 201 198 195 194 193 190 187 183 179 172 158 135 110 88 71 60 53 49 47 46 44 44 45 46 48 50 52 53 55 59 63 67 71 75 80 84 88 90 90 90 90
Height
5753 5753 5754 5755 5757 5758 5760 5761 5763 5763 5762 5763 5764 5764 5765 5765 5765 5765 5764 5763 5762 5760 5759 5757 5756 5754 5752 5750 5748 5745 5743 5740 5737 5733 5729 5725 5721 5716 5712 5707 5702 5698 5693 5689
5746 5746 5747 5748 5749 5750 5751 5752 5754 5754 5754 5755 5755 5755 5755 5755 5754 5754 5753 5752 5750 5748 5747 5745 5744 5742 5740 5737 5735 5732 5729 5726 5723 5719 5715 5711 5706 5702 5697 5692 5688 5683 5679 5674
5739 5739 5739 5740 5740 5741 5742 5743 5745 5745 5745 5745 5745 5746 5745 5745 5744 5743 5742 5740 5739 5737 5736 5734 5732 5730 5727 5725 5722 5719 5716 5713 5709 5704 5700 5696 5692 5687 5683 5678 5674 5669 5664 5660
5732 5732 5732 5733 5732 5733 5733 5733 5734 5734 5735 5736 5736 5736 5735 5735 5734 5733 5731 5730 5729 5727 5725 5723 5720 5718 5716 5713 5710 5706 5702 5698 5694 5690 5686 5682 5677 5673 5669 5664 5660 5656 5651 5647
5725 5725 5724 5724 5724 5724 5725 5725 5725 5725 5726 5726 5726 5726 5725 5725 5724 5724 5722 5720 5719 5717 5715 5712 5709 5706 5703 5700 5697 5693 5689 5685 5681 5677 5672 5668 5664 5660 5655 5651 5647 5643 5639 5635
5718 5718 5718 5717 5716 5716 5718 5717 5716 5716 5716 5717 5717 5717 5717 5716 5715 5714 5713 5711 5709 5707 5705 5702 5699 5695 5692 5688 5684 5680 5676 5672 5668 5664 5660 5655 5651 5647 5643 5639 5635 5631 5627 5623
5712 5711 5710 5710 5709 5710 5712 5711 5709 5709 5709 5709 5709 5710 5709 5708 5707 5706 5704 5703 5700 5698 5695 5692 5688 5685 5681 5677 5673 5668 5664 5660 5655 5651 5647 5643 5639 5635 5631 5627 5624 5620 5616 5612
5707 5707 5707 5705 5705 5705 5705 5703 5703 5703 5703 5703 5703 5702 5702 5701 5700 5699 5697 5695 5692 5689 5686 5682 5679 5675 5670 5666 5662 5657 5653 5648 5644 5639 5636 5632 5628 5624 5620 5617 5613 5609 5606 5602
5704 5704 5701 5700 5700 5699 5699 5699 5698 5698 5697 5697 5697 5696 5696 5694 5693 5691 5689 5687 5684 5680 5677 5673 5669 5665 5660 5656 5651 5646 5642 5637 5633 5629 5625 5621 5617 5613 5610 5606 5603 5599 5596 5593
5699 5698 5697 5696 5695 5695 5695 5694 5694 5693 5692 5692 5691 5690 5689 5688 5686 5684 5682 5679 5676 5673 5669 5665 5661 5656 5651 5646 5641 5636 5632 5627 5622 5618 5614 5610 5606 5603 5600 5597 5594 5591 5588 5585
5696 5695 5693 5692 5692 5691 5690 5690 5689 5688 5687 5687 5686 5685 5683 5682 5680 5677 5675 5672 5669 5666 5662 5658 5653 5648 5643 5638 5633 5627 5622 5617 5612 5607 5604 5600 5597 5594 5591 5589 5587 5585 5582 5580
5693 5691 5690 5689 5688 5687 5686 5685 5684 5684 5683 5682 5681 5679 5678 5676 5674 5672 5670 5667 5663 5660 5656 5652 5647 5641 5636 5630 5624 5618 5612 5607 5602 5598 5595 5592 5590 5587 5585 5584 5582 5580 5579 5577
5689 5687 5686 5685 5684 5683 5682 5681 5680 5679 5678 5677 5676 5675 5674 5672 5670 5668 5665 5662 5659 5655 5651 5646 5640 5635 5628 5622 5616 5610 5604 5599 5595 5591 5589 5586 5584 5583 5582 5580 5579 5578 5577 5575
5685 5684 5683 5681 5680 5679 5678 5677 5676 5675 5675 5674 5673 5672 5670 5669 5667 5665 5662 5659 5655 5651 5646 5641 5635 5629 5622 5615 5609 5603 5598 5593 5590 5587 5584 5583 5581 5580 5580 5579 5578 5577 5576 5575
5682 5681 5679 5678 5677 5676 5675 5674 5673 5673 5672 5672 5671 5670 5669 5667 5665 5663 5660 5656 5652 5648 5643 5637 5631 5624 5618 5611 5604 5598 5594 5590 5587 5584 5582 5581 5580 5579 5579 5578 5578 5577 5577 5576
5679 5678 5676 5675 5674 5673 5673 5672 5672 5671 5671 5671 5670 5669 5668 5666 5664 5661 5658 5654 5650 5646 5641 5635 5629 5622 5615 5608 5602 5596 5592 5588 5586 5584 5582 5581 5581 5580 5580 5579 5579 5579 5578 5578
5677 5675 5674 5673 5673 5672 5671 5671 5671 5671 5671 5671 5670 5669 5668 5666 5663 5660 5657 5653 5649 5644 5639 5634 5628 5621 5615 5608 5602 5597 5592 5589 5587 5585 5584 5583 5582 5582 5582 5582 5581 5581 5581 5581
5675 5674 5673 5672 5672 5671 5671 5671 5671 5671 5671 5671 5671 5670 5668 5666 5663 5660 5657 5653 5649 5644 5639 5634 5628 5622 5616 5610 5605 5600 5596 5593 5590 5588 5587 5586 5586 5585 5585 5585 5585 5585 5585 5585
5673 5672 5671 5671 5671 5671 5671 5671 5672 5672 5672 5672 5671 5670 5668 5666 5664 5661 5657 5653 5649 5645 5640 5635 5630 5625 5619 5614 5609 5604 5601 5598 5595 5593 5592 5591 5590 5590 5589 5589 5589 5589 5589 5589
5672 5671 5671 5671 5671 5671 5672 5672 5673 5673 5673 5673 5673 5671 5669 5667 5665 5662 5659 5655 5651 5647 5643 5638 5633 5628 5623 5619 5614 5610 5607 5604 5601 5599 5598 5596 5595 5595 5594 5594 5594 5594 5594 5593
5671 5670 5670 5671 5671 5672 5672 5673 5674 5674 5675 5675 5674 5673 5671 5669 5667 5664 5661 5658 5654 5650 5646 5642 5637 5632 5628 5624 5619 5616 5612 5609 5607 5604 5603 5601 5600 5599 5599 5599 5598 5598 5598 5597
5670 5670 5670 5671 5672 5672 5673 5674 5675 5675 5676 5676 5675 5674 5673 5671 5669 5667 5664 5661 5657 5654 5650 5646 5642 5637 5633 5628 5624 5620 5617 5614 5611 5609 5607 5605 5604 5603 5603 5602 5602 5602 5602 5601
5668 5669 5670 5671 5672 5673 5674 5675 5676 5677 5677 5677 5677 5676 5675 5674 5672 5670 5667 5664 5661 5658 5654 5650 5646 5642 5638 5633 5629 5625 5621 5618 5615 5612 5610 5608 5607 5606 5606 5606 5606 5606 5605 5605
5667 5668 5669 5670 5671 5673 5674 5675 5676 5677 5678 5678 5678 5678 5677 5676 5675 5673 5670 5668 5665 5662 5658 5655 5651 5647 5642 5638 5633 5629 5626 5622 5618 5615 5613 5611 5610 5609 5609 5609 5609 5609 5609 5609
5666 5667 5668 5669 5671 5672 5674 5675 5677 5678 5679 5680 5680 5680 5679 5678 5677 5676 5674 5671 5669 5666 5663 5659 5655 5651 5647 5642 5638 5634 5631 5627 5623 5619 5616 5615 5614 5613 5613 5613 5613 5613 5613 5613
5664 5665 5667 5668 5670 5672 5673 5675 5676 5678 5679 5680 5681 5681 5681 5680 5679 5678 5677 5675 5672 5670 5667 5664 5660 5656 5652 5648 5644 5640 5636 5632 5628 5625 5622 5620 5619 5618 5618 5618 5618 5618 5618 5617
5662 5664 5665 5667 5669 5671 5672 5674 5676 5678 5679 5681 5682 5682 5682 5682 5681 5681 5680 5678 5676 5674 5671 5668 5665 5661 5658 5654 5650 5647 5643 5640 5636 5633 5630 5628 5626 5625 5624 5624 5624 5624 5623 5623